• în România
  • Lista ţărilor
  • Pe 7 zile
  • Temperatura apei
  • Hartă satelitară
  • Meteo pe hartă
  • Widget-uri
  • user-avatar
    Intrare

    Meteo pe oră la Eisenstadt

    Astăzi, 22 Februarie, Miercuri

    Timp Temperatura Precipitaţii Vânt Presiune Umiditate
    00:00 +5°C° 0,1 mm 2 m/s 721 mmHg 94%
    01:00 +5°C° 0 mm 1 m/s 721 mmHg 95%
    02:00 +5°C° 0,1 mm 1 m/s 721 mmHg 95%
    03:00 +6°C° 0,1 mm 1 m/s 721 mmHg 95%
    04:00 +5°C° 0,1 mm 2 m/s 721 mmHg 95%
    05:00 +5°C° 0,3 mm 2 m/s 721 mmHg 95%
    06:00 +5°C° 0,3 mm 2 m/s 721 mmHg 95%
    07:00 +4°C° 0 mm 2 m/s 720 mmHg 95%
    08:00 +5°C° 0,2 mm 2 m/s 720 mmHg 93%
    09:00 +5°C° 0,2 mm 3 m/s 720 mmHg 91%
    10:00 +7°C° 0,2 mm 3 m/s 720 mmHg 89%
    11:00 +8°C° 0 mm 3 m/s 720 mmHg 84%
    12:00 +8°C° 0 mm 4 m/s 719 mmHg 80%
    13:00 +11°C° 0 mm 4 m/s 719 mmHg 76%
    14:00 +10°C° 0 mm 3 m/s 719 mmHg 77%
    15:00 +10°C° 0 mm 3 m/s 719 mmHg 79%
    16:00 +10°C° 0 mm 2 m/s 718 mmHg 81%
    17:00 +9°C° 0 mm 3 m/s 718 mmHg 83%
    18:00 +8°C° 0 mm 3 m/s 718 mmHg 86%
    19:00 +7°C° 0 mm 3 m/s 718 mmHg 89%
    20:00 +7°C° 0 mm 3 m/s 718 mmHg 88%
    21:00 +5°C° 0 mm 3 m/s 718 mmHg 88%
    22:00 +5°C° 0 mm 3 m/s 718 mmHg 88%
    23:00 +5°C° 0 mm 3 m/s 718 mmHg 87%

    Mâine, 23 Februarie, Joi

    Timp Temperatura Precipitaţii Vânt Presiune Umiditate
    00:00 +5°C° 0 mm 3 m/s 718 mmHg 86%
    01:00 +5°C° 0 mm 3 m/s 718 mmHg 86%
    02:00 +5°C° 0 mm 3 m/s 718 mmHg 85%
    03:00 +5°C° 0 mm 3 m/s 717 mmHg 84%
    04:00 +4°C° 0 mm 3 m/s 717 mmHg 83%
    05:00 +4°C° 0 mm 3 m/s 717 mmHg 83%
    06:00 +4°C° 0 mm 3 m/s 717 mmHg 83%
    07:00 +3°C° 0 mm 3 m/s 717 mmHg 82%
    08:00 +5°C° 0 mm 3 m/s 717 mmHg 80%
    09:00 +7°C° 0 mm 3 m/s 717 mmHg 77%
    10:00 +8°C° 0 mm 3 m/s 717 mmHg 74%
    11:00 +9°C° 0 mm 3 m/s 717 mmHg 71%
    12:00 +10°C° 0 mm 3 m/s 717 mmHg 68%
    13:00 +11°C° 0 mm 3 m/s 716 mmHg 66%
    14:00 +11°C° 0 mm 3 m/s 716 mmHg 69%
    15:00 +11°C° 0 mm 3 m/s 715 mmHg 73%
    16:00 +11°C° 0 mm 3 m/s 714 mmHg 77%
    17:00 +9°C° 0 mm 3 m/s 714 mmHg 80%
    18:00 +8°C° 0 mm 3 m/s 714 mmHg 83%
    19:00 +7°C° 0 mm 3 m/s 713 mmHg 86%
    20:00 +7°C° 0 mm 3 m/s 713 mmHg 86%
    21:00 +5°C° 0 mm 3 m/s 713 mmHg 86%
    22:00 +5°C° 0 mm 3 m/s 713 mmHg 86%
    23:00 +5°C° 0 mm 3 m/s 713 mmHg 85%

    Poimâine, 24 Februarie, Vineri

    Timp Temperatura Precipitaţii Vânt Presiune Umiditate
    00:00 +4°C° 0 mm 3 m/s 713 mmHg 84%
    01:00 +4°C° 0 mm 3 m/s 713 mmHg 84%
    02:00 +4°C° 0 mm 3 m/s 713 mmHg 84%
    03:00 +4°C° 0 mm 3 m/s 713 mmHg 85%
    04:00 +3°C° 0 mm 3 m/s 713 mmHg 86%
    05:00 +3°C° 0 mm 3 m/s 713 mmHg 86%
    06:00 +3°C° 0 mm 3 m/s 714 mmHg 87%
    07:00 +3°C° 0 mm 3 m/s 714 mmHg 87%
    08:00 +3°C° 0,1 mm 4 m/s 715 mmHg 84%
    09:00 +3°C° 0,1 mm 4 m/s 715 mmHg 82%
    10:00 +3°C° 0,1 mm 5 m/s 716 mmHg 80%
    11:00 +4°C° 0,4 mm 4 m/s 716 mmHg 79%
    12:00 +4°C° 0,4 mm 4 m/s 716 mmHg 79%
    13:00 +4°C° 0,4 mm 4 m/s 716 mmHg 79%
    14:00 +4°C° 0,5 mm 3 m/s 716 mmHg 80%
    15:00 +3°C° 0,5 mm 3 m/s 717 mmHg 82%
    16:00 +3°C° 0,5 mm 3 m/s 717 mmHg 83%
    17:00 +3°C° 0,3 mm 3 m/s 718 mmHg 84%
    18:00 +3°C° 0,3 mm 2 m/s 719 mmHg 85%
    19:00 +3°C° 0,3 mm 2 m/s 719 mmHg 87%
    20:00 +2°C° 0,2 mm 2 m/s 720 mmHg 86%
    21:00 +2°C° 0,2 mm 2 m/s 721 mmHg 86%
    22:00 +2°C° 0,2 mm 2 m/s 722 mmHg 86%
    23:00 +1°C° 0,1 mm 2 m/s 722 mmHg 86%

    25 Februarie, Sâmbătă

    Timp Temperatura Precipitaţii Vânt Presiune Umiditate
    00:00 +1°C° 0,1 mm 2 m/s 722 mmHg 86%
    01:00 +1°C° 0,1 mm 2 m/s 722 mmHg 87%
    02:00 -1°C° 0 mm 2 m/s 723 mmHg 88%
    03:00 -1°C° 0 mm 2 m/s 723 mmHg 89%
    04:00 -2°C° 0 mm 2 m/s 723 mmHg 90%
    05:00 -2°C° 0 mm 2 m/s 724 mmHg 90%
    06:00 -2°C° 0 mm 2 m/s 724 mmHg 91%
    07:00 -2°C° 0 mm 2 m/s 725 mmHg 91%
    08:00 0°C° 0 mm 3 m/s 725 mmHg 85%
    09:00 +1°C° 0 mm 3 m/s 726 mmHg 80%
    10:00 +3°C° 0 mm 4 m/s 727 mmHg 74%
    11:00 +3°C° 0 mm 3 m/s 727 mmHg 71%
    12:00 +4°C° 0 mm 3 m/s 727 mmHg 67%
    13:00 +4°C° 0 mm 3 m/s 727 mmHg 64%
    14:00 +4°C° 0 mm 3 m/s 727 mmHg 65%
    15:00 +5°C° 0 mm 2 m/s 727 mmHg 67%
    16:00 +5°C° 0 mm 2 m/s 727 mmHg 69%
    17:00 +4°C° 0 mm 1 m/s 727 mmHg 74%
    18:00 +3°C° 0 mm 1 m/s 727 mmHg 79%
    19:00 +1°C° 0 mm 1 m/s 727 mmHg 84%
    20:00 +1°C° 0 mm 1 m/s 727 mmHg 85%
    21:00 -1°C° 0 mm 2 m/s 728 mmHg 85%
    22:00 -1°C° 0 mm 2 m/s 728 mmHg 86%
    23:00 -1°C° 0 mm 2 m/s 727 mmHg 87%

    26 Februarie, Duminică

    Timp Temperatura Precipitaţii Vânt Presiune Umiditate
    00:00 -1°C° 0 mm 3 m/s 727 mmHg 88%
    01:00 -1°C° 0 mm 3 m/s 727 mmHg 89%
    02:00 -1°C° 0 mm 3 m/s 727 mmHg 88%
    03:00 -2°C° 0 mm 3 m/s 726 mmHg 88%
    04:00 -2°C° 0 mm 3 m/s 726 mmHg 87%
    05:00 -2°C° 0 mm 3 m/s 726 mmHg 86%
    06:00 -2°C° 0 mm 3 m/s 725 mmHg 85%
    07:00 -2°C° 0 mm 3 m/s 725 mmHg 85%
    08:00 0°C° 0 mm 3 m/s 725 mmHg 78%
    09:00 +1°C° 0 mm 4 m/s 725 mmHg 71%
    10:00 +3°C° 0 mm 4 m/s 726 mmHg 64%
    11:00 +4°C° 0 mm 4 m/s 725 mmHg 62%
    12:00 +5°C° 0 mm 3 m/s 725 mmHg 60%
    13:00 +7°C° 0 mm 3 m/s 725 mmHg 58%
    14:00 +7°C° 0 mm 3 m/s 724 mmHg 62%
    15:00 +5°C° 0 mm 3 m/s 724 mmHg 67%
    16:00 +6°C° 0 mm 2 m/s 723 mmHg 72%
    17:00 +4°C° 0 mm 2 m/s 723 mmHg 76%
    18:00 +3°C° 0 mm 2 m/s 723 mmHg 80%
    19:00 +1°C° 0 mm 2 m/s 723 mmHg 84%
    20:00 +1°C° 0 mm 2 m/s 723 mmHg 83%
    21:00 +1°C° 0 mm 2 m/s 723 mmHg 83%
    22:00 +1°C° 0 mm 2 m/s 724 mmHg 83%
    23:00 +2°C° 0 mm 1 m/s 723 mmHg 83%

    27 Februarie, Luni

    Timp Temperatura Precipitaţii Vânt Presiune Umiditate
    00:00 +2°C° 0 mm 1 m/s 723 mmHg 83%
    01:00 +1°C° 0 mm 1 m/s 723 mmHg 82%
    02:00 +1°C° 0 mm 1 m/s 723 mmHg 82%
    03:00 +1°C° 0 mm 1 m/s 723 mmHg 82%
    04:00 +1°C° 0 mm 1 m/s 722 mmHg 82%
    05:00 +1°C° 0 mm 1 m/s 723 mmHg 82%
    06:00 +1°C° 0 mm 1 m/s 723 mmHg 81%
    07:00 +1°C° 0 mm 1 m/s 723 mmHg 80%
    08:00 +2°C° 0 mm 2 m/s 723 mmHg 73%
    09:00 +5°C° 0 mm 2 m/s 723 mmHg 66%
    10:00 +7°C° 0 mm 2 m/s 724 mmHg 59%
    11:00 +8°C° 0 mm 3 m/s 723 mmHg 58%
    12:00 +9°C° 0 mm 3 m/s 723 mmHg 56%
    13:00 +10°C° 0 mm 4 m/s 722 mmHg 55%
    14:00 +8°C° 0 mm 4 m/s 722 mmHg 59%
    15:00 +8°C° 0 mm 4 m/s 721 mmHg 64%
    16:00 +7°C° 0 mm 4 m/s 721 mmHg 69%
    17:00 +6°C° 0 mm 4 m/s 721 mmHg 75%
    18:00 +4°C° 0 mm 4 m/s 720 mmHg 82%
    19:00 +1°C° 0 mm 4 m/s 720 mmHg 88%
    20:00 +1°C° 0 mm 4 m/s 720 mmHg 89%
    21:00 +1°C° 0 mm 4 m/s 719 mmHg 90%
    22:00 +1°C° 0 mm 4 m/s 719 mmHg 90%
    23:00 +1°C° 0 mm 4 m/s 719 mmHg 91%
    Arată mai mult